Regional Weather Roundup
Issued by NWS

Home | Current Version | Previous Version | Text Only | Print | Product List | Glossary On
Versions: 1 2 3 4 5 6 7 8 9 10 11 12 13 14 15 16 17 18 19 20 21 22 23 24 25 26 27 28 29 30 31 32 33 34 35 36 37 38 39 40 41 42 43 44 45 46 47 48 49 50
000
ASUS42 KTBW 030317
RWRFL
FLORIDA REGIONAL WEATHER ROUNDUP
NATIONAL WEATHER SERVICE TAMPA BAY RUSKIN FL
1100 PM EDT SUN AUG 02 2015

NOTE: "FAIR" INDICATES FEW OR NO CLOUDS BELOW 12,000 FEET WITH NO
SIGNIFICANT WEATHER AND/OR OBSTRUCTIONS TO VISIBILITY.


FLZ001>010-012>015-112-114-115-030400-
PANHANDLE FLORIDA

CITY           SKY/WX    TMP DP  RH WIND       PRES   REMARKS
PENSACOLA      CLOUDY    82  74  76 S7        29.88S
PENSACOLA NAS  MOCLDY    83  75  77 S6        29.88R
MILTON NAS     PTCLDY    81  72  74 SW8       29.88
CRESTVIEW      CLEAR     80  77  90 CALM      29.88R
DUKE FIELD     FAIR      82  75  78 CALM      29.86R
VALPARAISO     PTCLDY    82  73  73 W2        29.86R
MARY ESTHER    MOCLDY    81  70  69 W6        29.86R
PANAMA CITY    FAIR      82  77  84 SW6       29.86R
TYNDALL AFB    MOCLDY    85  78  81 W8        29.86R HX  97
APALACHICOLA   CLOUDY    83  74  74 CALM      29.85R

STATION/POSITION SKY/WX   TEMP    WIND        PRES    WAVE   SWELL
                          AIR SEA DIR/SP/G            HT/PER HT/PER
                          (F)     (DEG/KT/KT) (MB)    (FT/S) (FT/S)
30.1N   87.6W              87 88  250/ 14/ 14 1011.0R   1/ 3
29.2N   88.2W              85 87  240/ 14/ 17 1012.3R   3/ 5
28.8N   86.0W              86 87  280/ 16/ 19 1012.0R   5/ 6
PANAMA CITY BEAC           86 87  280/ 11/ 13 1010.7R
CAPE SAN BLAS    NOT AVBL
TOWER C                    84     300/ 12/ 13 1011.0R
28.5N   84.5W              84 84  270/ 19/ 23 1010.9R   7/ 7   3/14

$$
FLZ011-016>038-118-127-128-134-139-239-030400-
NORTH FLORIDA

CITY           SKY/WX    TMP DP  RH WIND       PRES   REMARKS
MARIANNA       CLEAR     82  77  84 CALM      29.85R
TALLAHASSEE    PTCLDY    82  76  81 CALM      29.85R
PERRY          CLOUDY    76  76 100 N3        29.84S
CROSS CITY       N/A     77  75  93 S10       29.81S
LAKE CITY      CLOUDY    73  73 100 SE6       29.86S
GAINESVILLE    CLOUDY    76  72  87 SE14      29.86F
MAYPORT NAS    CLOUDY    79  72  79 S12G20    29.91R
JACKSONVILLE   MOCLDY    79  72  79 S10       29.89R
JAX NAS        CLOUDY    83  71  67 S14       29.90R
JAX CRAIG      CLOUDY    79  72  79 MISG      29.91R
JAX CECIL      CLOUDY    77  72  83 SE7       29.89R
FERNANDINA BEA CLOUDY    82  72  69 S12       29.89S
ST AUGUSTINE   MOCLDY    78  72  81 S10       29.92S

STATION/POSITION SKY/WX   TEMP    WIND        PRES    WAVE   SWELL
                          AIR SEA DIR/SP/G            HT/PER HT/PER
                          (F)     (DEG/KT/KT) (MB)    (FT/S) (FT/S)
SHELL POINT                80     350/  3/  5   N/A
KEATON BEACH               77     360/  3/  4 1010.0R
CEDAR KEY                  77     260/ 12/ 15 1011.5R
FERNANDINA                 80 84  180/  7/ 14 1011.6R
30.7N   81.3W                 82                N/A     5/ 6
MAYPORT                    79 81  160/  5/  8 1012.7R
31.4N   80.9W              81 83  180/ 17/ 19 1012.4F   4/ 6   2/10
ST AUGUSTINE               78 81  190/ 15/ 18 1013.7R

$$
FLZ040-043>046-052-053-057-058-063-144-030400-
INTERIOR CENTRAL FLORIDA

CITY           SKY/WX    TMP DP  RH WIND       PRES   REMARKS
OCALA          CLOUDY    75  70  83 S7        29.89S
THE VILLAGES     N/A     77  77 100 SE8       29.82S
LEESBURG       CLOUDY    78  72  81 S12       29.93F
SANFORD        MOCLDY    76  72  87 S9        29.95R
ORLANDO EXEC   MOCLDY    76  73  91 S8        29.95R
ORLANDO INTL   MOCLDY    75  73  93 S8        29.96R
WINTER HAVEN   CLOUDY    78  71  79 S8        29.97R
LAKELAND       CLOUDY    75  72  88 S8        29.95S
BARTOW         FAIR      75  72  88 S7        29.96R
OKEECHOBEE     MOCLDY   N/A N/A N/A CALM      29.99S

$$
FLZ041-047-054-059-064-141-147-030400-
EAST CENTRAL FLORIDA

CITY           SKY/WX    TMP DP  RH WIND       PRES   REMARKS
DAYTONA BEACH  MOCLDY    76  71  85 S9        29.94S
DELAND           N/A     75  72  88 CALM      29.95S
JFK SPACE CTR  CLOUDY    75  70  84 S8        29.95R
CAPE CANAVERAL MOCLDY    76  72  86 S10       29.95R
PATRICK AFB    MOCLDY    77  72  84 S9        29.96S
MELBOURNE      PTCLDY    75  71  87 S6        29.97R
VERO BEACH     MOCLDY    75  71  87 CALM      29.98S
FT PIERCE      MOCLDY    74  72  93 S3        29.98S
STUART         MOCLDY    73  68  83 CALM      30.00R

STATION/POSITION SKY/WX   TEMP    WIND        PRES    WAVE   SWELL
                          AIR SEA DIR/SP/G            HT/PER HT/PER
                          (F)     (DEG/KT/KT) (MB)    (FT/S) (FT/S)
28.5N   80.2W              80 83  190/ 12/ 16 1014.9R
28.9N   78.5W              83 84  190/ 10/ 12 1015.7R
TRIDENT PIER               77 78  160/  5/  8 1015.0R
28.4N   80.5W                 77                N/A     2/11
27.5N   80.2W                 79                N/A     1/12

$$
FLZ050-056-061-142-242-148-248-149-249-151-251-155-255-
160-260-030400-
WEST CENTRAL FLORIDA

CITY           SKY/WX    TMP DP  RH WIND       PRES   REMARKS
CRYSTAL RIVER  RAIN      75  73  94 S3        29.89R
INVERNESS      FAIR      73  73 100 S6        29.91S
BROOKSVILLE    LGT RAIN  76  74  93 S8        29.93R
ZEPHYRHILLS    FAIR      73  73 100 CALM      29.94S
CLEARWATER     CLOUDY    81  72  74 SW15      29.93R
TAMPA INTL     CLOUDY    81  73  76 S13       29.93R
TAMPA EXEC     CLOUDY    79  72  78 S8        29.94
PLANT CITY     CLOUDY    77  73  88 S6        29.96S
MACDILL AFB    CLOUDY    81  78  91 SW14      29.93R
PETER O KNIGHT LGT RAIN  81  77  89 S14       29.94R
ST PETERSBURG  CLOUDY    83  72  69 SW10      29.92R
SARASOTA       CLOUDY    82  70  66 SW12      29.94R
VENICE         FAIR      82  72  69 SW10      29.97R

STATION/POSITION SKY/WX   TEMP    WIND        PRES    WAVE   SWELL
                          AIR SEA DIR/SP/G            HT/PER HT/PER
                          (F)     (DEG/KT/KT) (MB)    (FT/S) (FT/S)
CEDAR KEY                  77     260/ 12/ 15 1011.5R
28.5N   84.5W              84 84  270/ 19/ 23 1010.9R   7/ 7   3/14
27.3N   84.2W                 84                N/A     7/ 7
CLEARWATER BEACH           82 81  210/ 17/ 23 1012.8S
MIDDLE TAMPA BAY           83     250/ 14/ 17 1013.5S
VENICE                     84 84  220/ 12/ 14 1014.2R

$$
FLZ066-069-070-075>078-162-262-165-265-030400-
SOUTHWEST FLORIDA AND KEYS

CITY           SKY/WX    TMP DP  RH WIND       PRES   REMARKS
PUNTA GORDA    CLOUDY    77  74  90 S6        29.98S
FT MYERS       CLOUDY    79  74  84 SE5       29.97R
SOUTHWEST INTL CLOUDY    77  71  82 SE5       29.98R
NAPLES         MOCLDY    81  75  82 SE5       29.98R
MARCO ISLAND   MOCLDY    79  72  78 SE5       29.99R
MARATHON       MOCLDY    84  73  69 S9G18     29.99R
KEY WEST NAS   MOCLDY    82  73  74 S21G26    30.00R
KEY WEST INTL  PTCLDY    86  75  69 N3        30.00R HX  95

STATION/POSITION SKY/WX   TEMP    WIND        PRES    WAVE   SWELL
                          AIR SEA DIR/SP/G            HT/PER HT/PER
                          (F)     (DEG/KT/KT) (MB)    (FT/S) (FT/S)
VENICE                     84 84  220/ 12/ 14 1014.2R
NAPLES                        87              1015.9F
26.0N   85.6W              84 84  230/  8/ 10 1014.1R   2/ 5   2/ 5
DRY TORTUGAS               83      30/ 13/ 14 1015.0R
NW FL BAY                  85      80/  7/  9 1014.9
SAND KEY                   85     130/ 11/ 27 1015.8R
SOMBRERO KEY               82     120/ 15/ 18 1016.5R
LONG KEY                   85 89  190/  5/  6 1016.5R
MOLASSES REEF              84 87  180/  5/  6 1015.4R

$$
FLZ067-068-071>074-168-172>174-030400-
SOUTHEAST FLORIDA

CITY           SKY/WX    TMP DP  RH WIND       PRES   REMARKS
W PALM BEACH   MOCLDY    76  70  82 CALM      29.99R
FT LAUDER-EXEC MOCLDY    74  73  97 CALM      29.99R
FT LAUDERDALE  MOCLDY    78  73  84 S3        29.99R
POMPANO BEACH  MOCLDY    76  73  91 SE6       29.99R
PEMBROKE PINES MOCLDY    77  74  90 SE5       30.01R
OPA LOCKA      CLOUDY    78  73  84 S3        30.00R
MIAMI          MOCLDY    80  69  69 CALM      30.00R
WEST KENDALL   MOCLDY    78  71  79 CALM      30.00R
HOMESTEAD      PTCLDY    77  73  88 CALM      29.99R

STATION/POSITION SKY/WX   TEMP    WIND        PRES    WAVE   SWELL
                          AIR SEA DIR/SP/G            HT/PER HT/PER
                          (F)     (DEG/KT/KT) (MB)    (FT/S) (FT/S)
PORT EVERGLADES            80     260/  4/  7 1015.6R
VIRGINIA KEY               82 87   60/  1/  3 1014.9R
LAKE WORTH                 80 83  120/  2/  3 1014.7R
SETTLEMENT POINT           82      CALM  /  1 1016.5R

$$




USA.gov is the U.S. government's official web portal to all federal, state and local government web resources and services.